User: anonymous   Login
Location: Unspecified
(0.0000°N, 0.0000°E)
Time: 02:36:28
(UTC+00:00)
Language:

Aussat K1 - Orbit

View from above orbital plane
View from above orbital plane
View from above satellite
View from above satellite

Ground track
Ground track

The orbit data is extracted from the following two-line orbital elements,

1 15993U 85076B   15172.20889806 -.00000301  00000-0  00000+0 0  9994
2 15993 015.0741 015.1429 0002178 201.0695 077.4479 00.99764109 79537
Epoch (UTC): 21 June 2015 05:00:48
Eccentricity: 0.0002178
inclination: 15.0741°
perigee height: 35920 km
apogee height: 35938 km
right ascension of ascending node: 15.1429°
argument of perigee: 201.0695°
revolutions per day: 0.99764109
mean anomaly at epoch: 77.4479°
orbit number at epoch: 7953

The dashed part of the orbit path shows where the satellite is in the earth's shadow,  

DLR